Weather History for KHPN - August, 2013

Change the Weather History Date:

Friday, August 23, 2013

  Actual Average Record
Temperature  
Mean Temperature 70 °F -  
Max Temperature 80 °F 77 °F 90 °F (1978)
Min Temperature 64 °F 61 °F 52 °F (1987)
Cooling Degree Days 6    
Growing Degree Days 20 (Base 50)    
Moisture  
Dew Point 58 °F    
Average Humidity 64    
Maximum Humidity 87    
Minimum Humidity 40    
Precipitation  
Precipitation 0.00 in - - ()
Sea Level Pressure  
Sea Level Pressure 29.97 in    
Wind  
Wind Speed 10 mph (NNW)    
Max Wind Speed 15 mph    
Max Gust Speed 20 mph    
Visibility 10 miles    
Events      
Averages and records for this station are not official NWS values.
T = Trace of Precipitation, MM = Missing Value Source: NWS Daily Summary

Daily Weather History Graph

Daily Weather History Graph

Search for Another Location

Airport or City:

Trip Planner

Search our weather history database for the weather conditions in past years. The results will help you decide how hot, cold, wet, or windy it might be!

Date:

Astronomy

Aug. 23, 2013 Rise Set
Actual Time 6:12 AM EDT 7:41 PM EDT
Civil Twilight 5:43 AM EDT 8:10 PM EDT
Nautical Twilight 5:08 AM EDT 8:44 PM EDT
Astronomical Twilight 4:32 AM EDT 9:21 PM EDT
Moon 8:56 PM EDT (8/23) 9:07 AM EDT (8/23)
Length of Visible Light 14h 26m
Length of Day
13h 28m
Waning Gibbous, 91% of the Moon is Illuminated
Aug 23
Waning Gibbous
Aug 28
Last Quarter
Sep 5
New
Sep 12
First Quarter
Sep 19
Full

Hourly Weather History & Observations

Time (EDT) Temp. Dew Point Humidity Pressure Visibility Wind Dir Wind Speed Gust Speed Precip Events Conditions
12:56 AM 71.1 °F 66.9 °F 87% 29.87 in 7.0 mi WNW 6.9 mph - N/A   Clear
1:56 AM 71.1 °F 66.9 °F 87% 29.86 in 8.0 mi NW 9.2 mph - N/A   Mostly Cloudy
2:56 AM 70.0 °F 66.0 °F 87% 29.87 in 8.0 mi NNW 6.9 mph - N/A   Partly Cloudy
3:56 AM 71.1 °F 66.0 °F 84% 29.87 in 8.0 mi NW 11.5 mph - N/A   Overcast
4:56 AM 69.1 °F 63.0 °F 81% 29.88 in 10.0 mi NNW 9.2 mph - N/A   Clear
5:56 AM 68.0 °F 61.0 °F 78% 29.90 in 10.0 mi NNW 12.7 mph - N/A   Clear
6:56 AM 68.0 °F 60.1 °F 76% 29.93 in 10.0 mi North 11.5 mph - N/A   Clear
7:56 AM 70.0 °F 61.0 °F 73% 29.95 in 10.0 mi NNW 13.8 mph - N/A   Clear
8:56 AM 71.1 °F 61.0 °F 70% 29.96 in 10.0 mi NNW 11.5 mph - N/A   Clear
9:56 AM 72.0 °F 60.1 °F 66% 29.97 in 10.0 mi NW 11.5 mph - N/A   Clear
10:56 AM 73.9 °F 57.9 °F 57% 29.98 in 10.0 mi NW 10.4 mph - N/A   Partly Cloudy
11:56 AM 75.9 °F 55.9 °F 50% 29.97 in 10.0 mi NNW 15.0 mph - N/A   Clear
12:56 PM 77.0 °F 52.0 °F 42% 29.98 in 10.0 mi NNW 13.8 mph - N/A   Partly Cloudy
1:56 PM 77.0 °F 51.1 °F 40% 29.98 in 10.0 mi North 13.8 mph - N/A   Partly Cloudy
2:56 PM 77.0 °F 52.0 °F 42% 29.99 in 10.0 mi North 12.7 mph 19.6 mph N/A   Partly Cloudy
3:56 PM 77.0 °F 54.0 °F 45% 29.98 in 10.0 mi North 10.4 mph - N/A   Partly Cloudy
4:56 PM 77.0 °F 54.0 °F 45% 29.99 in 10.0 mi NNW 10.4 mph - N/A   Scattered Clouds
5:56 PM 73.9 °F 54.0 °F 50% 29.99 in 10.0 mi North 10.4 mph - N/A   Scattered Clouds
6:56 PM 73.9 °F 55.0 °F 52% 30.01 in 10.0 mi North 6.9 mph - N/A   Partly Cloudy
7:56 PM 69.1 °F 55.0 °F 61% 30.03 in 10.0 mi NW 5.8 mph - N/A   Clear
8:56 PM 64.9 °F 55.0 °F 70% 30.06 in 10.0 mi NW 5.8 mph - N/A   Clear
9:56 PM 66.0 °F 53.1 °F 63% 30.07 in 10.0 mi NNW 10.4 mph - N/A   Clear
10:56 PM 64.9 °F 52.0 °F 63% 30.09 in 10.0 mi North 8.1 mph - N/A   Clear
11:56 PM 66.9 °F 52.0 °F 59% 30.10 in 10.0 mi North 5.8 mph - N/A   Scattered Clouds